UAL43 EDDF-KEWR

Flight info

Callsign UAL43
Flight time N/A
Altitude 34000
Route OBOKA5G OBOKA Z29 TORNU DCT GALSO Q63 KOPUL Q60 OKSAW DCT TEWXI DCT LIPGO DCT RESNO/M084F340 DCT 55N020W 54N030W 53N040W 52N050W DCT TUDEP/N0481F340 DCT RENNY/N0472F360 DCT KJOHN DCT HANAA FLOSI4
Aircraft B77W/H-SDE1E2E3FGHIJ2J3J4J5M1RWXY/LB1D1

Departure

Time 2026-05-05 19:05
Airport Frankfurt Main Airport (EDDF)

Arrival

Time N/A
Airport Newark Liberty International Airport (KEWR)
Time Latitude Longitude Altitude Speed Heading
2026-05-05 18:09 50.04603 8.56784 350 ft 0 kts 294°
2026-05-05 18:51 50.04598 8.56806 360 ft 2 kts 292°
2026-05-05 18:52 50.04592 8.56830 360 ft 2 kts 289°
2026-05-05 18:52 50.04587 8.56855 360 ft 2 kts 282°
2026-05-05 18:52 50.04585 8.56881 359 ft 2 kts 263°
2026-05-05 18:52 50.04591 8.56904 360 ft 2 kts 203°
2026-05-05 18:53 50.04598 8.56907 360 ft 0 kts 194°
2026-05-05 18:55 50.04581 8.56901 360 ft 5 kts 193°
2026-05-05 18:55 50.04543 8.56887 350 ft 6 kts 193°
2026-05-05 18:55 50.04501 8.56892 358 ft 6 kts 158°
2026-05-05 18:56 50.04483 8.56940 353 ft 5 kts 91°
2026-05-05 18:56 50.04493 8.56997 355 ft 5 kts 71°
2026-05-05 18:56 50.04506 8.57051 358 ft 5 kts 70°
2026-05-05 18:56 50.04521 8.57115 354 ft 7 kts 70°
2026-05-05 18:57 50.04541 8.57201 356 ft 10 kts 70°
2026-05-05 18:57 50.04569 8.57321 356 ft 12 kts 69°
2026-05-05 18:57 50.04600 8.57448 359 ft 12 kts 69°
2026-05-05 18:57 50.04629 8.57573 359 ft 12 kts 70°
2026-05-05 18:58 50.04659 8.57701 359 ft 11 kts 70°
2026-05-05 18:58 50.04686 8.57809 358 ft 11 kts 68°
2026-05-05 18:58 50.04722 8.57906 359 ft 10 kts 48°
2026-05-05 18:58 50.04773 8.57989 360 ft 10 kts 46°
2026-05-05 18:59 50.04808 8.58087 356 ft 10 kts 68°
2026-05-05 18:59 50.04834 8.58189 358 ft 10 kts 70°
2026-05-05 18:59 50.04859 8.58298 353 ft 12 kts 70°
2026-05-05 18:59 50.04888 8.58422 360 ft 12 kts 70°
2026-05-05 19:00 50.04914 8.58527 352 ft 8 kts 69°
2026-05-05 19:00 50.04931 8.58606 354 ft 6 kts 81°
2026-05-05 19:00 50.04913 8.58667 355 ft 6 kts 143°
2026-05-05 19:00 50.04871 8.58693 357 ft 6 kts 160°
2026-05-05 19:01 50.04865 8.58697 350 ft 0 kts 160°
2026-05-05 19:02 50.04849 8.58706 354 ft 5 kts 160°
2026-05-05 19:02 50.04814 8.58725 355 ft 5 kts 160°
2026-05-05 19:02 50.04776 8.58746 358 ft 9 kts 160°
2026-05-05 19:03 50.04720 8.58767 357 ft 8 kts 176°
2026-05-05 19:03 50.04665 8.58762 355 ft 8 kts 185°
2026-05-05 19:03 50.04610 8.58743 357 ft 8 kts 201°
2026-05-05 19:03 50.04565 8.58691 359 ft 8 kts 221°
2026-05-05 19:04 50.04521 8.58636 359 ft 8 kts 218°
2026-05-05 19:04 50.04486 8.58570 359 ft 9 kts 243°
2026-05-05 19:04 50.04414 8.58280 351 ft 61 kts 250°
2026-05-05 19:04 50.04181 8.57303 358 ft 130 kts 250°
2026-05-05 19:05 50.03792 8.55691 361 ft 186 kts 249°
2026-05-05 19:05 50.03323 8.53726 804 ft 191 kts 249°
2026-05-05 19:05 50.02876 8.51770 1487 ft 191 kts 251°
2026-05-05 19:05 50.02684 8.49708 1832 ft 201 kts 275°
2026-05-05 19:06 50.02857 8.47455 2033 ft 219 kts 275°
2026-05-05 19:06 50.03021 8.45006 2366 ft 234 kts 273°
2026-05-05 19:06 50.02873 8.42465 2813 ft 238 kts 256°
2026-05-05 19:06 50.02510 8.39920 3298 ft 245 kts 258°
2026-05-05 19:07 50.02182 8.37274 3812 ft 252 kts 258°
2026-05-05 19:07 50.01856 8.34577 4443 ft 255 kts 258°
2026-05-05 19:07 50.01528 8.31847 5106 ft 257 kts 258°
2026-05-05 19:07 50.01251 8.29136 5543 ft 258 kts 268°
2026-05-05 19:08 50.01650 8.26394 5852 ft 265 kts 293°
2026-05-05 19:08 50.02442 8.23798 6288 ft 268 kts 292°
2026-05-05 19:08 50.03217 8.21149 6814 ft 268 kts 292°
2026-05-05 19:08 50.03986 8.18504 7322 ft 269 kts 292°
2026-05-05 19:09 50.04759 8.15842 7784 ft 272 kts 292°
2026-05-05 19:09 50.05544 8.13143 7929 ft 274 kts 292°
2026-05-05 19:09 50.06483 8.10566 8493 ft 277 kts 303°
2026-05-05 19:09 50.07677 8.08192 9135 ft 279 kts 307°
2026-05-05 19:10 50.08925 8.05863 9739 ft 282 kts 307°
2026-05-05 19:10 50.10189 8.03506 10276 ft 285 kts 307°
2026-05-05 19:10 50.11456 8.01111 10788 ft 290 kts 307°
2026-05-05 19:10 50.12768 7.98606 10988 ft 308 kts 306°
2026-05-05 19:11 50.14154 7.95938 11280 ft 325 kts 306°
2026-05-05 19:11 50.15606 7.93122 11571 ft 342 kts 306°
2026-05-05 19:11 50.17138 7.90141 11865 ft 361 kts 306°
2026-05-05 19:11 50.18741 7.87013 12323 ft 375 kts 307°
2026-05-05 19:12 50.20384 7.83805 12999 ft 382 kts 307°
2026-05-05 19:12 50.22048 7.80551 13781 ft 385 kts 307°
2026-05-05 19:12 50.23727 7.77262 14481 ft 390 kts 307°
2026-05-05 19:12 50.25528 7.74083 15017 ft 396 kts 317°
2026-05-05 19:13 50.27931 7.71899 15510 ft 403 kts 336°
2026-05-05 19:13 50.30567 7.70287 16067 ft 410 kts 336°
2026-05-05 19:13 50.33215 7.68537 16774 ft 414 kts 335°
2026-05-05 19:13 50.35866 7.66720 17498 ft 417 kts 335°
2026-05-05 19:14 50.38530 7.64877 18162 ft 422 kts 335°
2026-05-05 19:14 50.41229 7.63015 18722 ft 426 kts 335°
2026-05-05 19:14 50.43969 7.61128 19286 ft 431 kts 335°
2026-05-05 19:14 50.46729 7.59228 19860 ft 435 kts 335°
2026-05-05 19:15 50.49478 7.57334 20416 ft 439 kts 336°
2026-05-05 19:15 50.52288 7.55395 20980 ft 444 kts 336°
2026-05-05 19:15 50.55129 7.53431 21549 ft 448 kts 335°
2026-05-05 19:15 50.57914 7.51206 22079 ft 451 kts 329°
2026-05-05 19:16 50.60566 7.48512 22597 ft 456 kts 325°
2026-05-05 19:16 50.63185 7.45639 23130 ft 460 kts 324°
2026-05-05 19:16 50.65830 7.42755 23613 ft 464 kts 325°
2026-05-05 19:16 50.68527 7.39920 24049 ft 468 kts 326°
2026-05-05 19:17 50.71261 7.37110 24501 ft 471 kts 327°
2026-05-05 19:17 50.73919 7.34095 24834 ft 472 kts 316°
2026-05-05 19:17 50.75971 7.30052 25116 ft 475 kts 297°